www.pogodaiklimat.ru

Погода и климат >> Архив погоды >> Казахстан >> Саумалколь


ПОГОДА в Саумалколе

  • Прогноз погоды в Саумалколе
  • Монитор погоды в Саумалколе
  • Климат города

АРХИВ ПОГОДЫ в Саумалколе

Время (UTC), дата Ветер
(напр.,м/с)
 
Видим.   Явления Облачность Т
(С)
Тd
(С)
f
(%)
Тe
(С)
Тes
(С)
Комфортность P
(гПа)
Po
(гПа)
Тmin
(С)
Tmax
(С)
R
(мм)
R24
(мм)
S
(см)
12 9.10 З 11-17
{21}
20 км 9/8 600 м
[Cu Sc Ci ing]
+14.6 +3.8 48 +12 +12 1020.3 982.0
15 9.10 СЗ 8
{17}
н/о 4/4 600 м
[Sc]
+10.5 +0.6 50 +7 +7 1022.2 983.3 +16.0
18 9.10 СЗ 4 н/о ясно +3.8 -1.7 67 -0 -0 1025.2 985.2 +16.0
21 9.10 штиль 0 н/о дымка ясно 0.0 -3.7 76 -1 -1 1027.2 986.6
00 10.10 штиль 0 н/о дымка ясно -1.2 -1.9 95 -3 -3 1028.0 987.1
03 10.10 штиль 0 4000 м дымка 4/3 600 м
[Sc Ac cast]
-3.6 -3.8 99 -5 -5 1029.7 988.4
06 10.10 штиль 0 20 км ясно +6.6 +0.2 64 +6 +11 1029.3 989.5 -3.6
09 10.10 З 2 20 км 4/4 1000 м
[Cu med, cong]
+8.6 -0.6 52 +7 +10 1027.7 988.2
12 10.10 ЮЗ 4 20 км 6/0
[Cs]
+9.2 -0.7 50 +7 +7 1026.2 986.9
15 10.10 ЮЗ 3 н/о дымка 3/0
[Ci fib]
+4.2 -0.3 72 +1 +1 1025.9 985.9 +10.4
18 10.10 Ю 2 н/о дымка 4/0
[Ci ing]
+2.9 -0.6 78 0 0 1023.4 983.4 +10.4
21 10.10 Ю 6 н/о дымка 8/0
[Ci ing]
+5.6 +1.6 75 +1 +1 1020.2 980.7
00 11.10 Ю 6 н/о дымка 6/0
[Ci ing]
+6.3 +1.9 73 +2 +2 1017.2 977.8
03 11.10 Ю 5 4000 м дымка 9/8 600 м
[Sc Ci ing]
+7.3 +2.8 73 +4 +4 1014.3 975.2
06 11.10 ЮЗ 11-18
{21}
20 км 9/5 600 м
[Sc Ac trans Ci ing]
+12.6 -0.4 41 +9 +9 1010.0 971.7 +2.5
09 11.10 ЮЗ 14-22
{25}
20 км пыльная буря на расстоянии {метель} 9/9 600 м
[Sc]
+13.7 -2.8 32 +11 +11 1006.5 968.6
12 11.10 ЮЗ 12-23
{28}
20 км пыльная буря на расстоянии {метель} 10/10 600 м
[Sc]
+13.4 -6.0 25 +10 +10 1004.3 966.4
18 11.10 ЮЗ 10-15
{19}
н/о слабый ливневой дождь {метель} 10/10 600 м
[Cb cap]
+6.4 +3.4 81 +1 +1 1004.6 965.8 +15.0
21 11.10 ЮЗ 7
{15}
н/о дымка {ливн. осадки} 10/10 600 м
[Sc]
+5.2 +3.3 88 -0 -0 1003.2 964.3
00 12.10 З 5 н/о дымка {ливн. осадки} 6/4 600 м
[Sc]
+4.2 +1.2 81 -1 -1 1002.8 963.7
03 12.10 СЗ 4 4000 м дымка 10/10 600 м
[Sc]
+2.3 -0.1 84 -3 -3 1003.9 964.5
06 12.10 З 3 20 км в посл. час ливневой снег 9/9 600 м
[Cb cap]
+0.6 -0.5 92 -4 -4 1004.9 965.2 +2.3 1
09 12.10 СЗ 4 20 км в посл. час крупа {ливн. осадки} 9/9 600 м
[Cb cap]
+3.6 +0.5 80 -1 -1 1005.1 965.9
12 12.10 СЗ 3 20 км {ливн. осадки} 9/9 600 м
[Sc]
+3.0 -0.8 76 -1 -1 1005.9 966.6
18 12.10 штиль 0 н/о дымка 10/10 600 м
[Sc]
+0.4 -1.3 88 -1 -1 1006.7 967.0 +4.2 0.6
21 12.10 З 2 н/о слабый ливневой снег 10/10 600 м
[Cb cap]
+0.2 -0.1 98 -4 -4 1005.9 966.2
00 13.10 З 3 н/о ливневой снег 10/10 600 м
[Cb cap]
-0.6 -0.9 98 -6 -6 1005.7 965.8
03 13.10 СЗ 4 20 км {ливн. осадки} 10/10 600 м
[Sc]
-1.4 -1.9 96 -7 -7 1006.4 966.3
06 13.10 СЗ 5 4000 м дымка {ливн. осадки} 10/10 600 м
[Sc]
-1.0 -2.9 87 -7 -7 1007.3 967.3 -1.4 2
09 13.10 СЗ 4 4000 м дымка 9/8 1000 м
[Cu med, cong Ci ing]
-0.1 -3.3 79 -5 -5 1007.9 968.0
12 13.10 СЗ 2 4000 м дымка 10/4 600 м
[Cu med, cong Ci ing]
+0.2 -3.4 77 -3 -3 1009.2 969.3
15 13.10 штиль 0 н/о дымка 6/6 600 м
[Sc]
-1.9 -3.4 89 -3 -3 1010.8 970.6 +0.5
18 13.10 З 3 н/о дымка 10/10 600 м
[Sc]
-2.0 -3.2 91 -7 -7 1011.4 971.1 +0.5
21 13.10 ЮЗ 4 н/о дымка 10/10 600 м
[Sc]
-1.9 -2.4 96 -8 -8 1011.9 971.6
00 14.10 ЮЗ 5 н/о слабый ливневой снег 10/10 600 м
[Cb cap]
-1.7 -1.9 99 -8 -8 1012.3 972.0
03 14.10 ЮЗ 4 4000 м слабый ливневой снег 10/10 600 м
[Cb cap]
-1.2 -1.6 97 -7 -7 1012.6 972.4
06 14.10 З 5 20 км {ливн. осадки} 9/8 600 м
[Sc Ac trans]
-0.4 -1.0 96 -7 -7 1013.3 973.2 -2.2 0.6
09 14.10 З 3 1000 м ливневой снег 10/10 600 м
[Cb cap]
0.0 -1.1 92 -5 -5 1013.7 973.6
12 14.10 ЮЗ 4 4000 м слабый ливневой снег 10/10 600 м
[Cb cap]
+0.1 -0.7 94 -6 -6 1014.5 974.4
18 14.10 ЮЗ 2 н/о дымка {ливн. осадки} 10/10 600 м
[Sc]
-1.6 -2.4 94 -6 -6 1015.7 975.3 +0.1 6
21 14.10 ЮЗ 1 н/о дымка 10/10 600 м
[Sc]
-1.7 -2.5 94 -4 -4 1015.7 975.3
00 15.10 Ю 2 н/о дымка 10/10 600 м
[Sc]
-1.5 -2.6 92 -5 -5 1015.9 975.5
03 15.10 штиль 0 2000 м дымка 9/9 600 м
[Sc]
-2.3 -3.5 91 -4 -4 1016.4 975.8 1
06 15.10 СВ 1 4000 м дымка 9/8 600 м
[Sc Ac cast]
+0.2 -1.5 88 -2 -1 1016.7 976.5 -2.3
09 15.10 СВ 4 20 км 10/10 600 м
[Sc]
+1.0 -4.2 68 -4 -4 1016.7 976.6
12 15.10 СВ 3 20 км {ливн. осадки} 9/9 600 м
[Cb cap]
+0.6 -3.6 73 -4 -4 1017.6 977.4
15 15.10 С 4 н/о дымка 4/4 600 м
[Sc]
-1.4 -4.0 82 -7 -7 1018.8 978.3 +1.5
18 15.10 С 3 н/о дымка 3/3 600 м
[Sc]
-2.0 -3.8 87 -7 -7 1019.4 978.8 +1.5 0.0
21 15.10 С 2 н/о дымка 4/4 600 м
[Sc]
-3.0 -4.3 91 -7 -7 1019.6 978.9
00 16.10 С 1 н/о дымка 3/3 600 м
[Sc]
-4.0 -5.5 89 -6 -6 1020.3 979.4
03 16.10 С 2 2000 м дымка 6/6 600 м
[Sc]
-4.6 -6.6 86 -9 -9 1021.7 980.6
06 16.10 С 3 4000 м слабый ливневой снег {туман} 10/10 600 м
[Cb cap]
-2.4 -3.3 94 -8 -8 1022.9 982.1 -4.8 0.0
09 16.10 СЗ 4 4000 м дымка {ливн. осадки} 10/10 600 м
[Sc]
-2.0 -3.8 87 -8 -8 1023.5 982.7

 

Местоположение метеостанции Саумалколь (Северо-Казахстанская область, Казахстан): широта 53.32 долгота 68.10 высота над уровнем моря 319 м.

В архиве по умолчанию представлена погода в Саумалколе за последнюю неделю. Архивные данные за месяц целиком и за предыдущие месяцы, начиная с января 2011 года, Вы можете получить, выбрав интересующий диапазон дат из раскрывающегося списка и нажав кнопку "Ввод!".


*Определитесь, кто Вы:
робот инопланетянин человек

Внимание! Время в таблицах - всемирное. Для получения местного времени необходимо прибавить поправку, которая в Саумалколе равна 5 ч.

Смотрите также архив погоды в соседних городах и на ближайших метеорологических станциях:

Погода в Еленовке (Акмолинская область, Казахстан) (53 км)
Погода в Сергеевке (Северо-Казахстанская область, Казахстан) (77 км)
Погода в Приозерном (Акмолинская область, Казахстан) (83 км)
Погода в Зеренде (Акмолинская область, Казахстан) (84 км)
Погода в Кокшетау (Акмолинская область, Казахстан) (85 км)
Погода в Рузаевке (Северо-Казахстанская область, Казахстан) (94 км)
Погода в Балкашино (Акмолинская область, Казахстан) (98 км)
Погода в Тимирязево (Северо-Казахстанская область, Казахстан) (117 км)
Погода в Тайынше (Северо-Казахстанская область, Казахстан) (125 км)
Погода в Благовещенке (Северо-Казахстанская область, Казахстан) (138 км)

Пояснения к столбцам:

Ветер - указаны скорость ветра в м/с - средняя за 10 мин, порывы в срок и между сроками (в фигурных скобках) и направление, откуда дует ветер: С - северный, СВ - северо-восточный, В - восточный, ЮВ - юго-восточный, Ю - южный, ЮЗ - юго-западный, З - западный, СЗ - северо-западный.
Видимость - горизонтальная дальность видимости в метрах или километрах. При видимости от 1 до 10 км при отсутствии осадков обычно наблюдается дымка, при ухудшении видимости до 1 км и менее - туман. В сухую погоду видимость может ухудшаться дымом, пылью или мглою.
Явления - указаны атмосферные явления, наблюдавшиеся в срок или в последний час перед сроком; фигурными скобками обозначены явления, наблюдавшиеся между сроками (за 1-3 часа до срока); квадратными скобками обозначены град или гололедные отложения с указанием их диаметра в мм.
Облачность - указаны через наклонную черту общая и нижняя облачность в баллах и высота нижней границы облаков в метрах; квадратными скобками обозначены формы облаков: Ci - перистые, Cs - перисто-слоистые, Cc - перисто-кучевые, Ac - высококучевые, As - высокослоистые, Sc - слоисто-кучевые, Ns - слоисто-дождевые, Cu - кучевые, Cb - кучево-дождевые. Подробнее классификацию облаков см. в Атласе облаков (PDF).
T - Температура воздуха - температура, измеренная на высоте 2 м над землей.
Td - Температура точки росы - температура, при понижении до которой содержащийся в воздухе водяной пар достигнет насыщения.
f - Относительная влажность воздуха - влажноcть воздуха, измеренная на высоте 2 м над землей.
Te - Эффективная температура - температура, которую ощущает одетый по сезону человек в тени. Характеристика душности погоды. При расчете учитывается влияние влажности воздуха и скорости ветра на теплоощущения человека.
Tes - Эффективная температура на солнце - температура, которую ощущает человек, с поправкой на солнечный нагрев. Характеристика знойности погоды. Зависит от высоты солнца над горизонтом, облачности и скорости ветра. Ночью, в пасмурную погоду, а также при ветре 12 м/с и более поправка равна нулю.
P - Атмосферное давление - приведенное к уровню моря атмосферное давление.
Po - Атмосферное давление - измеренное на уровне метеостанции атмосферное давление.
Tmin - Минимальная температура - минимум температуры воздуха на высоте 2 м над землей.
Tmax - Максимальная температура - максимум температуры воздуха на высоте 2 м над землей.
R - Количество осадков - Количество выпавших осадков за период времени, мм. При наведении курсора мыши на число - период времени, за который выпало указанное количество осадков.
R24 - Количество осадков - Количество выпавших осадков за 24 часа, мм.
S - Снежный покров - Высота снежного покрова, см. При наведении курсора мыши на число - состояние снежного покрова и степень покрытия местности в баллах.